Time,TemperatureF,DewpointF,PressureIn,WindDirection,WindDirectionDegrees,WindSpeedMPH,WindSpeedGustMPH,Humidity,HourlyPrecipIn,Conditions,Clouds,dailyrainin,SoftwareType,DateUTC
2013-07-25 00:02:00,65.0,52.0,29.99,WNW,291,0.0,0.0,62,0.00,,,0.00,,2013-07-25 04:02:00,
2013-07-25 00:12:00,65.0,52.0,29.99,WNW,291,0.0,0.0,62,0.00,,,0.00,,2013-07-25 04:12:00,
2013-07-25 00:22:00,65.0,52.0,29.99,WNW,291,0.0,0.0,63,0.00,,,0.00,,2013-07-25 04:22:00,
2013-07-25 00:53:00,65.0,53.0,29.99,WNW,291,0.0,0.0,64,0.00,,,0.00,,2013-07-25 04:53:00,
2013-07-25 01:02:00,64.0,52.0,29.99,WNW,291,0.0,0.0,65,0.00,,,0.00,,2013-07-25 05:02:00,
2013-07-25 01:12:00,64.0,52.0,29.99,WNW,291,0.0,0.0,65,0.00,,,0.00,,2013-07-25 05:12:00,
2013-07-25 01:22:00,64.0,52.0,29.99,WNW,291,0.0,0.0,65,0.00,,,0.00,,2013-07-25 05:22:00,
2013-07-25 01:43:00,64.0,52.0,29.99,WNW,291,0.0,0.0,66,0.00,,,0.00,,2013-07-25 05:43:00,
2013-07-25 02:12:00,63.0,51.0,29.99,WNW,291,0.0,0.0,65,0.00,,,0.00,,2013-07-25 06:12:00,
2013-07-25 02:32:00,63.0,51.0,29.99,WNW,291,0.0,0.0,64,0.00,,,0.00,,2013-07-25 06:32:00,
2013-07-25 03:02:00,63.0,51.0,29.99,WNW,291,0.0,0.0,66,0.00,,,0.00,,2013-07-25 07:02:00,
2013-07-25 03:12:00,63.0,51.0,29.99,WNW,291,0.0,0.0,66,0.00,,,0.00,,2013-07-25 07:12:00,
2013-07-25 04:02:00,62.0,51.0,29.99,WNW,291,0.0,0.0,67,0.00,,,0.00,,2013-07-25 08:02:00,
2013-07-25 04:12:00,62.0,51.0,29.99,WNW,291,0.0,0.0,67,0.00,,,0.00,,2013-07-25 08:12:00,
2013-07-25 04:22:00,62.0,51.0,30.00,WNW,291,0.0,0.0,67,0.00,,,0.00,,2013-07-25 08:22:00,
2013-07-25 04:44:00,62.0,51.0,30.00,WNW,291,0.0,0.0,66,0.00,,,0.00,,2013-07-25 08:44:00,
2013-07-25 05:02:00,62.0,51.0,30.00,WNW,291,0.0,0.0,66,0.00,,,0.00,,2013-07-25 09:02:00,
2013-07-25 05:12:00,62.0,51.0,30.01,WNW,291,0.0,0.0,66,0.00,,,0.00,,2013-07-25 09:12:00,
2013-07-25 05:22:00,62.0,51.0,30.01,WNW,291,0.0,0.0,66,0.00,,,0.00,,2013-07-25 09:22:00,
2013-07-25 05:43:00,61.0,50.0,30.01,WNW,291,0.0,0.0,66,0.00,,,0.00,,2013-07-25 09:43:00,
2013-07-25 05:52:00,61.0,50.0,30.01,WNW,291,0.0,0.0,66,0.00,,,0.00,,2013-07-25 09:52:00,
2013-07-25 06:03:00,61.0,49.0,30.01,WNW,291,0.0,0.0,65,0.00,,,0.00,,2013-07-25 10:03:00,
2013-07-25 06:12:00,61.0,49.0,30.01,WNW,291,0.0,0.0,65,0.00,,,0.00,,2013-07-25 10:12:00,
2013-07-25 06:22:00,61.0,49.0,30.01,WNW,291,0.0,0.0,65,0.00,,,0.00,,2013-07-25 10:22:00,
2013-07-25 06:42:00,61.0,49.0,30.01,WNW,291,0.0,0.0,65,0.00,,,0.00,,2013-07-25 10:42:00,
2013-07-25 06:53:00,61.0,50.0,30.01,WNW,291,0.0,0.0,66,0.00,,,0.00,,2013-07-25 10:53:00,
2013-07-25 07:12:00,61.0,50.0,30.02,WNW,291,0.0,0.0,66,0.00,,,0.00,,2013-07-25 11:12:00,
2013-07-25 07:43:00,61.0,50.0,30.03,WNW,291,0.0,0.0,67,0.00,,,0.00,,2013-07-25 11:43:00,
2013-07-25 08:12:00,61.0,50.0,30.05,WNW,291,0.0,0.0,67,0.00,,,0.00,,2013-07-25 12:12:00,
2013-07-25 08:32:00,61.0,50.0,30.06,WNW,291,0.0,0.0,67,0.00,,,0.00,,2013-07-25 12:32:00,
2013-07-25 08:45:00,61.0,50.0,30.06,WNW,291,0.0,0.0,67,0.00,,,0.00,,2013-07-25 12:45:00,
2013-07-25 08:53:00,61.0,50.0,30.06,WNW,291,0.0,0.0,67,0.00,,,0.00,,2013-07-25 12:53:00,
2013-07-25 09:12:00,61.0,50.0,30.07,WNW,291,0.0,0.0,66,0.00,,,0.00,,2013-07-25 13:12:00,
2013-07-25 09:22:00,61.0,50.0,30.06,WNW,291,0.0,0.0,67,0.00,,,0.00,,2013-07-25 13:22:00,
2013-07-25 09:43:00,62.0,51.0,30.07,WNW,291,0.0,0.0,67,0.00,,,0.00,,2013-07-25 13:43:00,
2013-07-25 10:02:00,62.0,51.0,30.07,WNW,291,0.0,0.0,66,0.00,,,0.00,,2013-07-25 14:02:00,
2013-07-25 10:12:00,62.0,51.0,30.07,WNW,291,0.0,0.0,67,0.00,,,0.00,,2013-07-25 14:12:00,
2013-07-25 10:33:00,63.0,51.0,30.07,WNW,291,0.0,0.0,64,0.00,,,0.00,,2013-07-25 14:33:00,
2013-07-25 10:43:00,63.0,51.0,30.06,WNW,291,0.0,0.0,65,0.00,,,0.00,,2013-07-25 14:43:00,
2013-07-25 11:02:00,63.0,51.0,30.07,WNW,291,0.0,0.0,65,0.00,,,0.00,,2013-07-25 15:02:00,
2013-07-25 11:12:00,64.0,52.0,30.07,WNW,291,0.0,0.0,65,0.00,,,0.00,,2013-07-25 15:12:00,
2013-07-25 11:22:00,64.0,52.0,30.07,WNW,291,0.0,0.0,66,0.00,,,0.00,,2013-07-25 15:22:00,
2013-07-25 12:12:00,64.0,52.0,30.08,WNW,291,0.0,0.0,66,0.00,,,0.00,,2013-07-25 16:12:00,
2013-07-25 12:23:00,65.0,54.0,30.09,WNW,291,0.0,0.0,67,0.00,,,0.00,,2013-07-25 16:23:00,
2013-07-25 12:45:00,66.0,54.0,30.09,WNW,291,0.0,0.0,66,0.00,,,0.00,,2013-07-25 16:45:00,
2013-07-25 12:53:00,66.0,54.0,30.09,WNW,291,0.0,0.0,66,0.00,,,0.00,,2013-07-25 16:53:00,
2013-07-25 13:12:00,66.0,54.0,30.09,WNW,291,0.0,0.0,66,0.00,,,0.00,,2013-07-25 17:12:00,
2013-07-25 13:22:00,66.0,54.0,30.09,WNW,291,0.0,0.0,66,0.00,,,0.00,,2013-07-25 17:22:00,
2013-07-25 13:43:00,66.0,55.0,30.09,WNW,291,0.0,0.0,67,0.00,,,0.00,,2013-07-25 17:43:00,
2013-07-25 13:53:00,66.0,55.0,30.09,WNW,291,0.0,0.0,67,0.00,,,0.00,,2013-07-25 17:53:00,
2013-07-25 14:02:00,66.0,56.0,30.09,WNW,291,0.0,0.0,69,0.00,,,0.00,,2013-07-25 18:02:00,
2013-07-25 14:12:00,66.0,54.0,30.08,WNW,291,0.0,0.0,66,0.00,,,0.00,,2013-07-25 18:12:00,
2013-07-25 14:33:00,67.0,54.0,30.08,WNW,291,0.0,0.0,63,0.00,,,0.00,,2013-07-25 18:33:00,
2013-07-25 14:43:00,67.0,54.0,30.08,WNW,291,0.0,0.0,63,0.00,,,0.00,,2013-07-25 18:43:00,
2013-07-25 14:52:00,67.0,54.0,30.08,WNW,291,0.0,0.0,63,0.00,,,0.00,,2013-07-25 18:52:00,
2013-07-25 15:12:00,68.0,56.0,30.08,WNW,291,0.0,0.0,65,0.00,,,0.00,,2013-07-25 19:12:00,
2013-07-25 15:23:00,67.0,55.0,30.08,WNW,291,0.0,0.0,65,0.00,,,0.00,,2013-07-25 19:23:00,
2013-07-25 15:33:00,67.0,55.0,30.08,WNW,291,0.0,0.0,65,0.00,,,0.00,,2013-07-25 19:33:00,
2013-07-25 15:43:00,67.0,56.0,30.07,WNW,291,0.0,0.0,68,0.00,,,0.00,,2013-07-25 19:43:00,
2013-07-25 16:03:00,66.0,56.0,30.07,WNW,291,0.0,0.0,69,0.00,,,0.00,,2013-07-25 20:03:00,
2013-07-25 16:12:00,67.0,56.0,30.07,WNW,291,0.0,0.0,68,0.00,,,0.00,,2013-07-25 20:12:00,
2013-07-25 16:22:00,67.0,56.0,30.07,WNW,291,0.0,0.0,68,0.00,,,0.00,,2013-07-25 20:22:00,
2013-07-25 17:03:00,67.0,56.0,30.08,WNW,291,0.0,0.0,69,0.00,,,0.00,,2013-07-25 21:03:00,
2013-07-25 17:12:00,67.0,56.0,30.08,WNW,291,0.0,0.0,69,0.00,,,0.00,,2013-07-25 21:12:00,
2013-07-25 17:22:00,67.0,56.0,30.07,WNW,291,0.0,0.0,69,0.00,,,0.00,,2013-07-25 21:22:00,
2013-07-25 17:44:00,67.0,56.0,30.07,WNW,291,0.0,0.0,69,0.00,,,0.00,,2013-07-25 21:44:00,
2013-07-25 17:52:00,67.0,56.0,30.07,WNW,291,0.0,0.0,69,0.00,,,0.00,,2013-07-25 21:52:00,
2013-07-25 18:02:00,68.0,57.0,30.07,WNW,291,0.0,0.0,68,0.00,,,0.00,,2013-07-25 22:02:00,
2013-07-25 18:12:00,68.0,57.0,30.07,WNW,291,0.0,0.0,68,0.00,,,0.00,,2013-07-25 22:12:00,
2013-07-25 18:32:00,68.0,57.0,30.07,WNW,291,0.0,0.0,69,0.00,,,0.00,,2013-07-25 22:32:00,
2013-07-25 18:43:00,68.0,57.0,30.07,WNW,291,0.0,0.0,68,0.00,,,0.00,,2013-07-25 22:43:00,
2013-07-25 18:53:00,68.0,57.0,30.07,WNW,291,0.0,0.0,68,0.00,,,0.00,,2013-07-25 22:53:00,
2013-07-25 19:12:00,68.0,57.0,30.08,WNW,291,0.0,0.0,68,0.00,,,0.00,,2013-07-25 23:12:00,
2013-07-25 19:22:00,68.0,57.0,30.08,WNW,291,0.0,0.0,68,0.00,,,0.00,,2013-07-25 23:22:00,
2013-07-25 19:32:00,67.0,57.0,30.08,WNW,291,0.0,0.0,70,0.00,,,0.00,,2013-07-25 23:32:00,
2013-07-25 19:43:00,67.0,57.0,30.08,WNW,291,0.0,0.0,70,0.00,,,0.00,,2013-07-25 23:43:00,
2013-07-25 20:02:00,67.0,57.0,30.08,WNW,291,0.0,0.0,71,0.00,,,0.00,,2013-07-26 00:02:00,
2013-07-25 20:12:00,67.0,57.0,30.08,WNW,291,0.0,0.0,71,0.00,,,0.00,,2013-07-26 00:12:00,
2013-07-25 20:22:00,67.0,58.0,30.08,WNW,291,0.0,0.0,72,0.00,,,0.00,,2013-07-26 00:22:00,
2013-07-25 20:33:00,66.0,57.0,30.08,WNW,291,0.0,0.0,72,0.00,,,0.00,,2013-07-26 00:33:00,
2013-07-25 20:43:00,67.0,58.0,30.08,WNW,291,0.0,0.0,74,0.00,,,0.00,,2013-07-26 00:43:00,
2013-07-25 20:52:00,67.0,58.0,30.08,WNW,291,0.0,0.0,74,0.00,,,0.00,,2013-07-26 00:52:00,
2013-07-25 21:02:00,66.0,57.0,30.08,WNW,291,0.0,0.0,74,0.00,,,0.00,,2013-07-26 01:02:00,
2013-07-25 21:12:00,66.0,57.0,30.08,WNW,291,0.0,0.0,74,0.00,,,0.00,,2013-07-26 01:12:00,
2013-07-25 21:22:00,66.0,57.0,30.08,WNW,291,0.0,0.0,74,0.00,,,0.00,,2013-07-26 01:22:00,
2013-07-25 21:43:00,66.0,58.0,30.08,WNW,291,0.0,0.0,75,0.00,,,0.00,,2013-07-26 01:43:00,
2013-07-25 21:52:00,66.0,58.0,30.08,WNW,291,0.0,0.0,75,0.00,,,0.00,,2013-07-26 01:52:00,
2013-07-25 22:02:00,66.0,58.0,30.08,WNW,291,0.0,0.0,75,0.00,,,0.00,,2013-07-26 02:02:00,
2013-07-25 22:12:00,66.0,58.0,30.08,WNW,291,0.0,0.0,75,0.00,,,0.00,,2013-07-26 02:12:00,
2013-07-25 22:22:00,66.0,58.0,30.08,WNW,291,0.0,0.0,75,0.00,,,0.00,,2013-07-26 02:22:00,
2013-07-25 22:43:00,65.0,58.0,30.08,WNW,291,0.0,0.0,77,0.00,,,0.00,,2013-07-26 02:43:00,
2013-07-25 23:02:00,65.0,58.0,30.08,WNW,291,0.0,0.0,78,0.00,,,0.00,,2013-07-26 03:02:00,
2013-07-25 23:12:00,65.0,58.0,30.08,WNW,291,0.0,0.0,78,0.00,,,0.00,,2013-07-26 03:12:00,
2013-07-25 23:22:00,65.0,58.0,30.08,WNW,291,0.0,0.0,78,0.00,,,0.00,,2013-07-26 03:22:00,
2013-07-25 23:44:00,65.0,58.0,30.08,WNW,291,0.0,0.0,79,0.00,,,0.00,,2013-07-26 03:44:00,